Wetterdaten: Sonntag, 02.06.2013
Datum Zeit Temperatur Luftfeuchte Luftdruck Regen Wind Richtung Richtung Taupunkt Windchill Windben
02.06.2013 00:00 8,8 C 96 % 1015,6 hPa 0,0 l/m 9,2 km/h (2 Bft) S 180 8,2 C 5,5 C 10,9 km/h (2 Bft)
02.06.2013 00:05 8,8 C 96 % 1015,6 hPa 0,0 l/m 9,7 km/h (2 Bft) S-SO 157 8,2 C 5,0 C 11,1 km/h (2 Bft)
02.06.2013 00:10 8,8 C 96 % 1015,6 hPa 0,0 l/m 9,2 km/h (2 Bft) S 180 8,2 C 5,3 C 14,0 km/h (3 Bft)
02.06.2013 00:15 8,7 C 96 % 1015,6 hPa 0,0 l/m 10,5 km/h (2 Bft) S 180 8,1 C 4,2 C 11,9 km/h (2 Bft)
02.06.2013 00:20 8,7 C 96 % 1015,6 hPa 0,0 l/m 10,5 km/h (2 Bft) S 180 8,1 C 4,2 C 16,6 km/h (3 Bft)
02.06.2013 00:25 8,7 C 96 % 1015,6 hPa 0,0 l/m 9,0 km/h (2 Bft) SO 135 8,1 C 5,5 C 11,6 km/h (2 Bft)
02.06.2013 00:30 8,7 C 96 % 1015,6 hPa 0,7 l/m 9,0 km/h (2 Bft) S 180 8,1 C 5,5 C 5,8 km/h (2 Bft)
02.06.2013 00:35 8,7 C 96 % 1015,6 hPa 0,0 l/m 8,9 km/h (2 Bft) S 180 8,1 C 5,5 C 10,9 km/h (2 Bft)
02.06.2013 00:40 8,7 C 96 % 1015,8 hPa 0,0 l/m 7,4 km/h (2 Bft) S 180 8,1 C 6,9 C 9,5 km/h (2 Bft)
02.06.2013 00:45 8,7 C 96 % 1015,8 hPa 0,0 l/m 7,2 km/h (2 Bft) S-SW 202 8,1 C 7,2 C 4,8 km/h (1 Bft)
02.06.2013 00:50 8,7 C 96 % 1015,8 hPa 0,0 l/m 8,2 km/h (2 Bft) S 180 8,1 C 6,3 C 13,8 km/h (3 Bft)
02.06.2013 00:55 8,7 C 96 % 1015,8 hPa 0,0 l/m 7,9 km/h (2 Bft) S 180 8,1 C 6,4 C 12,2 km/h (2 Bft)
02.06.2013 01:00 8,7 C 96 % 1016,1 hPa 0,0 l/m 7,9 km/h (2 Bft) S-SO 157 8,1 C 6,4 C 9,0 km/h (2 Bft)
02.06.2013 01:05 8,6 C 96 % 1016,1 hPa 0,0 l/m 8,7 km/h (2 Bft) S 180 8,0 C 5,6 C 9,3 km/h (2 Bft)
02.06.2013 01:10 8,6 C 96 % 1016,1 hPa 0,0 l/m 8,0 km/h (2 Bft) S-SO 157 8,0 C 6,2 C 12,2 km/h (2 Bft)
02.06.2013 01:15 8,6 C 96 % 1016,1 hPa 0,7 l/m 7,7 km/h (2 Bft) S 180 8,0 C 6,4 C 8,2 km/h (2 Bft)
02.06.2013 01:20 8,5 C 96 % 1015,8 hPa 0,0 l/m 7,7 km/h (2 Bft) S 180 7,9 C 6,4 C 6,9 km/h (2 Bft)
02.06.2013 01:25 8,5 C 96 % 1015,8 hPa 0,0 l/m 7,4 km/h (2 Bft) S 180 7,9 C 6,7 C 18,8 km/h (3 Bft)
02.06.2013 01:30 8,5 C 96 % 1015,8 hPa 0,0 l/m 7,6 km/h (2 Bft) S 180 7,9 C 6,4 C 10,5 km/h (2 Bft)
02.06.2013 01:35 8,5 C 96 % 1015,8 hPa 0,0 l/m 8,0 km/h (2 Bft) S-SW 202 7,9 C 6,0 C 12,1 km/h (2 Bft)
02.06.2013 01:40 8,5 C 96 % 1015,8 hPa 0,0 l/m 7,9 km/h (2 Bft) S-SO 157 7,9 C 6,2 C 8,2 km/h (2 Bft)
02.06.2013 01:45 8,5 C 96 % 1015,8 hPa 0,0 l/m 7,2 km/h (2 Bft) S 180 7,9 C 7,0 C 6,1 km/h (2 Bft)
02.06.2013 01:50 8,5 C 96 % 1015,8 hPa 0,0 l/m 6,8 km/h (2 Bft) SO 135 7,9 C 7,4 C 9,0 km/h (2 Bft)
02.06.2013 01:55 8,5 C 96 % 1015,8 hPa 0,0 l/m 6,4 km/h (2 Bft) S 180 7,9 C 7,7 C 7,6 km/h (2 Bft)
02.06.2013 02:00 8,5 C 96 % 1015,9 hPa 0,0 l/m 6,9 km/h (2 Bft) S-SO 157 7,9 C 7,2 C 8,2 km/h (2 Bft)
02.06.2013 02:05 8,4 C 96 % 1015,9 hPa 0,0 l/m 7,7 km/h (2 Bft) S 180 7,8 C 6,4 C 7,4 km/h (2 Bft)
02.06.2013 02:10 8,4 C 96 % 1015,9 hPa 0,0 l/m 8,0 km/h (2 Bft) SO 135 7,8 C 5,9 C 3,1 km/h (1 Bft)
02.06.2013 02:15 8,4 C 96 % 1015,9 hPa 0,7 l/m 8,9 km/h (2 Bft) S 180 7,8 C 5,1 C 13,8 km/h (3 Bft)
02.06.2013 02:20 8,3 C 96 % 1015,8 hPa 0,0 l/m 8,5 km/h (2 Bft) S 180 7,7 C 5,3 C 7,1 km/h (2 Bft)
02.06.2013 02:25 8,3 C 96 % 1015,8 hPa 0,0 l/m 7,7 km/h (2 Bft) S 180 7,7 C 6,1 C 7,2 km/h (2 Bft)
02.06.2013 02:30 8,3 C 96 % 1015,8 hPa 0,0 l/m 7,2 km/h (2 Bft) SW 225 7,7 C 6,7 C 5,5 km/h (1 Bft)
02.06.2013 02:35 8,2 C 96 % 1015,8 hPa 0,0 l/m 7,6 km/h (2 Bft) S-SW 202 7,6 C 6,1 C 10,5 km/h (2 Bft)
02.06.2013 02:40 8,2 C 96 % 1015,9 hPa 0,0 l/m 7,1 km/h (2 Bft) W-SW 247 7,6 C 6,6 C 11,9 km/h (2 Bft)
02.06.2013 02:45 8,2 C 96 % 1015,9 hPa 0,0 l/m 7,9 km/h (2 Bft) S-SW 202 7,6 C 5,8 C 8,9 km/h (2 Bft)
02.06.2013 02:50 8,2 C 96 % 1015,9 hPa 0,0 l/m 7,2 km/h (2 Bft) S-SW 202 7,6 C 6,5 C 8,5 km/h (2 Bft)
02.06.2013 02:55 8,2 C 96 % 1015,9 hPa 0,0 l/m 6,8 km/h (2 Bft) S-SO 157 7,6 C 7,0 C 11,6 km/h (2 Bft)
02.06.2013 03:00 8,2 C 96 % 1015,9 hPa 0,0 l/m 7,2 km/h (2 Bft) SW 225 7,6 C 6,5 C 8,4 km/h (2 Bft)
02.06.2013 03:05 8,2 C 96 % 1015,9 hPa 0,0 l/m 7,7 km/h (2 Bft) S 180 7,6 C 5,9 C 6,9 km/h (2 Bft)
02.06.2013 03:10 8,2 C 96 % 1015,9 hPa 0,0 l/m 7,9 km/h (2 Bft) S 180 7,6 C 5,8 C 10,5 km/h (2 Bft)
02.06.2013 03:15 8,2 C 96 % 1015,9 hPa 0,0 l/m 9,5 km/h (2 Bft) S-SW 202 7,6 C 4,3 C 14,3 km/h (3 Bft)
02.06.2013 03:20 8,2 C 96 % 1015,8 hPa 0,0 l/m 9,0 km/h (2 Bft) W-SW 247 7,6 C 4,7 C 8,0 km/h (2 Bft)
02.06.2013 03:25 8,2 C 96 % 1015,8 hPa 0,0 l/m 7,4 km/h (2 Bft) O-SO 112 7,6 C 6,3 C 4,0 km/h (1 Bft)
02.06.2013 03:30 8,2 C 96 % 1015,8 hPa 0,0 l/m 8,0 km/h (2 Bft) S 180 7,6 C 5,6 C 10,3 km/h (2 Bft)
02.06.2013 03:35 8,1 C 96 % 1015,8 hPa 0,0 l/m 8,4 km/h (2 Bft) SO 135 7,5 C 5,3 C 7,1 km/h (2 Bft)
02.06.2013 03:40 8,2 C 96 % 1015,6 hPa 0,0 l/m 8,2 km/h (2 Bft) S 180 7,6 C 5,4 C 8,0 km/h (2 Bft)
02.06.2013 03:45 8,1 C 96 % 1015,6 hPa 0,0 l/m 7,6 km/h (2 Bft) W-SW 247 7,5 C 6,1 C 8,9 km/h (2 Bft)
02.06.2013 03:50 8,1 C 96 % 1015,6 hPa 0,0 l/m 7,7 km/h (2 Bft) S 180 7,5 C 5,9 C 10,9 km/h (2 Bft)
02.06.2013 03:55 8,2 C 96 % 1015,6 hPa 0,0 l/m 7,7 km/h (2 Bft) S-SO 157 7,6 C 5,9 C 9,3 km/h (2 Bft)
02.06.2013 04:00 8,1 C 96 % 1015,7 hPa 0,0 l/m 7,9 km/h (2 Bft) SW 225 7,5 C 5,8 C 8,5 km/h (2 Bft)
02.06.2013 04:05 8,1 C 96 % 1015,7 hPa 0,7 l/m 7,4 km/h (2 Bft) S 180 7,5 C 6,3 C 6,8 km/h (2 Bft)
02.06.2013 04:10 8,1 C 96 % 1015,7 hPa 0,0 l/m 7,6 km/h (2 Bft) S-SW 202 7,5 C 6,0 C 10,3 km/h (2 Bft)
02.06.2013 04:15 8,1 C 96 % 1015,7 hPa 0,7 l/m 8,9 km/h (2 Bft) S 180 7,5 C 4,7 C 12,1 km/h (2 Bft)
02.06.2013 04:20 8,1 C 96 % 1015,6 hPa 0,0 l/m 9,0 km/h (2 Bft) S-SO 157 7,5 C 4,6 C 23,3 km/h (4 Bft)
02.06.2013 04:25 8,1 C 96 % 1015,6 hPa 0,0 l/m 8,9 km/h (2 Bft) N 360 7,5 C 4,7 C 7,4 km/h (2 Bft)
02.06.2013 04:30 8,1 C 96 % 1015,6 hPa 0,0 l/m 8,4 km/h (2 Bft) S 180 7,5 C 5,2 C 9,3 km/h (2 Bft)
02.06.2013 04:35 8,1 C 96 % 1015,6 hPa 0,0 l/m 8,5 km/h (2 Bft) S-SO 157 7,5 C 5,1 C 16,1 km/h (3 Bft)
02.06.2013 04:40 8,0 C 96 % 1015,5 hPa 0,0 l/m 8,2 km/h (2 Bft) S-SW 202 7,4 C 5,2 C 9,5 km/h (2 Bft)
02.06.2013 04:45 8,0 C 96 % 1015,5 hPa 0,0 l/m 9,0 km/h (2 Bft) SW 225 7,4 C 4,5 C 8,2 km/h (2 Bft)
02.06.2013 04:50 8,0 C 96 % 1015,5 hPa 0,0 l/m 8,2 km/h (2 Bft) S-SO 157 7,4 C 5,2 C 8,4 km/h (2 Bft)
02.06.2013 04:55 8,0 C 96 % 1015,5 hPa 0,7 l/m 7,4 km/h (2 Bft) S 180 7,4 C 6,1 C 10,0 km/h (2 Bft)
02.06.2013 05:00 7,9 C 96 % 1015,8 hPa 0,0 l/m 7,9 km/h (2 Bft) S 180 7,3 C 5,6 C 9,8 km/h (2 Bft)
02.06.2013 05:05 7,9 C 96 % 1015,8 hPa 0,0 l/m 8,2 km/h (2 Bft) S 180 7,3 C 5,2 C 5,6 km/h (1 Bft)
02.06.2013 05:10 7,9 C 96 % 1015,8 hPa 0,0 l/m 8,4 km/h (2 Bft) S-SO 157 7,3 C 5,1 C 13,5 km/h (3 Bft)
02.06.2013 05:15 7,9 C 96 % 1015,8 hPa 0,0 l/m 8,5 km/h (2 Bft) S 180 7,3 C 4,9 C 10,0 km/h (2 Bft)
02.06.2013 05:20 7,9 C 96 % 1016,0 hPa 0,7 l/m 8,7 km/h (2 Bft) S 180 7,3 C 4,6 C 6,9 km/h (2 Bft)
02.06.2013 05:25 7,9 C 96 % 1016,0 hPa 0,7 l/m 8,2 km/h (2 Bft) S 180 7,3 C 5,1 C 13,5 km/h (3 Bft)
02.06.2013 05:30 7,9 C 96 % 1016,0 hPa 0,0 l/m 8,2 km/h (2 Bft) S 180 7,3 C 5,1 C 6,1 km/h (2 Bft)
02.06.2013 05:35 7,8 C 96 % 1016,0 hPa 0,0 l/m 8,9 km/h (2 Bft) S 180 7,2 C 4,5 C 7,2 km/h (2 Bft)
02.06.2013 05:40 7,8 C 96 % 1016,3 hPa 0,0 l/m 8,4 km/h (2 Bft) SO 135 7,2 C 4,8 C 13,8 km/h (3 Bft)
02.06.2013 05:45 7,8 C 96 % 1016,3 hPa 0,0 l/m 7,2 km/h (2 Bft) S-SO 157 7,2 C 6,0 C 6,9 km/h (2 Bft)
02.06.2013 05:50 7,8 C 96 % 1016,3 hPa 0,7 l/m 6,8 km/h (2 Bft) S-SO 157 7,2 C 6,5 C 6,3 km/h (2 Bft)
02.06.2013 05:55 7,8 C 96 % 1016,3 hPa 0,0 l/m 7,1 km/h (2 Bft) S-SO 157 7,2 C 6,1 C 6,9 km/h (2 Bft)
02.06.2013 06:00 7,8 C 96 % 1016,9 hPa 0,0 l/m 6,4 km/h (2 Bft) S-SO 157 7,2 C 6,9 C 3,7 km/h (1 Bft)
02.06.2013 06:05 7,8 C 96 % 1016,9 hPa 0,7 l/m 4,7 km/h (1 Bft) S 180 7,2 C 7,4 C 7,6 km/h (2 Bft)
02.06.2013 06:10 7,7 C 96 % 1016,9 hPa 0,0 l/m 4,5 km/h (1 Bft) SO 135 7,1 C 7,4 C 4,0 km/h (1 Bft)
02.06.2013 06:15 7,7 C 96 % 1016,9 hPa 0,0 l/m 4,0 km/h (1 Bft) S-SO 157 7,1 C 7,6 C 3,7 km/h (1 Bft)
02.06.2013 06:20 7,7 C 96 % 1017,2 hPa 0,0 l/m 3,9 km/h (1 Bft) S 180 7,1 C 7,7 C 8,4 km/h (2 Bft)
02.06.2013 06:25 7,7 C 96 % 1017,2 hPa 0,0 l/m 5,6 km/h (1 Bft) S-SW 202 7,1 C 6,9 C 6,6 km/h (2 Bft)
02.06.2013 06:30 7,7 C 96 % 1017,2 hPa 0,7 l/m 6,0 km/h (2 Bft) S-SO 157 7,1 C 6,8 C 8,7 km/h (2 Bft)
02.06.2013 06:35 7,6 C 96 % 1017,2 hPa 0,7 l/m 5,8 km/h (2 Bft) O-SO 112 7,0 C 6,9 C 6,3 km/h (2 Bft)
02.06.2013 06:40 7,6 C 96 % 1017,0 hPa 0,0 l/m 6,1 km/h (2 Bft) S 180 7,0 C 6,8 C 7,2 km/h (2 Bft)
02.06.2013 06:45 7,6 C 96 % 1017,0 hPa 0,0 l/m 6,3 km/h (2 Bft) S 180 7,0 C 6,8 C 8,9 km/h (2 Bft)
02.06.2013 06:50 7,6 C 96 % 1017,0 hPa 0,7 l/m 6,3 km/h (2 Bft) S-SW 202 7,0 C 6,8 C 6,4 km/h (2 Bft)
02.06.2013 06:55 7,6 C 96 % 1017,0 hPa 0,0 l/m 5,3 km/h (1 Bft) S-SW 202 7,0 C 7,1 C 5,8 km/h (2 Bft)
02.06.2013 07:00 7,6 C 96 % 1017,2 hPa 0,0 l/m 4,7 km/h (1 Bft) W-NW 292 7,0 C 7,3 C 8,7 km/h (2 Bft)
02.06.2013 07:05 7,6 C 96 % 1017,2 hPa 0,7 l/m 6,1 km/h (2 Bft) S 180 7,0 C 6,8 C 11,1 km/h (2 Bft)
02.06.2013 07:10 7,6 C 96 % 1017,2 hPa 0,0 l/m 6,4 km/h (2 Bft) S 180 7,0 C 6,7 C 5,3 km/h (1 Bft)
02.06.2013 07:15 7,6 C 96 % 1017,2 hPa 0,0 l/m 6,1 km/h (2 Bft) S-SW 202 7,0 C 6,8 C 6,1 km/h (2 Bft)
02.06.2013 07:20 7,6 C 96 % 1017,6 hPa 0,7 l/m 5,6 km/h (1 Bft) S 180 7,0 C 6,9 C 6,3 km/h (2 Bft)
02.06.2013 07:25 7,6 C 96 % 1017,6 hPa 0,0 l/m 5,1 km/h (1 Bft) S-SW 202 7,0 C 7,1 C 8,2 km/h (2 Bft)
02.06.2013 07:30 7,6 C 96 % 1017,6 hPa 0,7 l/m 6,0 km/h (2 Bft) S 180 7,0 C 6,8 C 8,4 km/h (2 Bft)
02.06.2013 07:35 7,5 C 96 % 1017,6 hPa 0,0 l/m 7,7 km/h (2 Bft) S 180 6,9 C 5,1 C 14,8 km/h (3 Bft)
02.06.2013 07:40 7,5 C 96 % 1017,8 hPa 0,7 l/m 8,2 km/h (2 Bft) W 270 6,9 C 4,7 C 9,8 km/h (2 Bft)
02.06.2013 07:45 7,5 C 96 % 1017,8 hPa 0,7 l/m 8,2 km/h (2 Bft) S 180 6,9 C 4,7 C 6,9 km/h (2 Bft)
02.06.2013 07:50 7,5 C 96 % 1017,8 hPa 0,7 l/m 7,1 km/h (2 Bft) S-SO 157 6,9 C 5,7 C 6,1 km/h (2 Bft)
02.06.2013 07:55 7,5 C 96 % 1017,8 hPa 0,0 l/m 7,1 km/h (2 Bft) S-SW 202 6,9 C 5,7 C 8,0 km/h (2 Bft)
02.06.2013 08:00 7,4 C 96 % 1018,0 hPa 0,7 l/m 8,2 km/h (2 Bft) S-SW 202 6,8 C 4,5 C 18,5 km/h (3 Bft)
02.06.2013 08:05 7,4 C 96 % 1018,0 hPa 0,0 l/m 9,5 km/h (2 Bft) O-NO 67 6,8 C 3,3 C 11,1 km/h (2 Bft)
02.06.2013 08:10 7,4 C 96 % 1018,0 hPa 0,7 l/m 9,2 km/h (2 Bft) S 180 6,8 C 3,5 C 6,1 km/h (2 Bft)
02.06.2013 08:15 7,4 C 96 % 1018,0 hPa 0,0 l/m 6,1 km/h (2 Bft) W-SW 247 6,8 C 6,6 C 6,4 km/h (2 Bft)
02.06.2013 08:20 7,3 C 96 % 1018,4 hPa 0,7 l/m 5,1 km/h (1 Bft) W-SW 247 6,7 C 6,7 C 9,0 km/h (2 Bft)
02.06.2013 08:25 7,4 C 96 % 1018,4 hPa 0,0 l/m 5,1 km/h (1 Bft) SO 135 6,8 C 6,7 C 3,7 km/h (1 Bft)
02.06.2013 08:30 7,4 C 96 % 1018,4 hPa 0,0 l/m 5,0 km/h (1 Bft) S-SO 157 6,8 C 6,8 C 12,1 km/h (2 Bft)
02.06.2013 08:35 7,3 C 96 % 1018,4 hPa 0,7 l/m 6,6 km/h (2 Bft) S-SW 202 6,7 C 6,2 C 6,6 km/h (2 Bft)
02.06.2013 08:40 7,2 C 96 % 1018,1 hPa 0,0 l/m 7,7 km/h (2 Bft) O-SO 112 6,6 C 4,9 C 5,8 km/h (2 Bft)
02.06.2013 08:45 7,2 C 96 % 1018,1 hPa 0,7 l/m 7,6 km/h (2 Bft) S 180 6,6 C 4,9 C 10,6 km/h (2 Bft)
02.06.2013 08:50 7,2 C 96 % 1018,1 hPa 0,7 l/m 7,7 km/h (2 Bft) S-SW 202 6,6 C 4,7 C 10,0 km/h (2 Bft)
02.06.2013 08:55 7,2 C 96 % 1018,1 hPa 0,0 l/m 7,2 km/h (2 Bft) SO 135 6,6 C 5,3 C 9,3 km/h (2 Bft)
02.06.2013 09:00 7,3 C 96 % 1017,9 hPa 0,0 l/m 6,9 km/h (2 Bft) S-SO 157 6,7 C 5,7 C 11,6 km/h (2 Bft)
02.06.2013 09:05 7,3 C 96 % 1017,9 hPa 0,0 l/m 8,2 km/h (2 Bft) S-SW 202 6,7 C 4,4 C 15,9 km/h (3 Bft)
02.06.2013 09:10 7,3 C 96 % 1017,9 hPa 0,7 l/m 8,9 km/h (2 Bft) S 180 6,7 C 3,7 C 12,6 km/h (3 Bft)
02.06.2013 09:15 7,3 C 96 % 1017,9 hPa 0,0 l/m 8,7 km/h (2 Bft) S-SO 157 6,7 C 3,9 C 12,4 km/h (3 Bft)
02.06.2013 09:20 7,4 C 96 % 1017,8 hPa 0,0 l/m 8,5 km/h (2 Bft) S 180 6,8 C 4,0 C 15,4 km/h (3 Bft)
02.06.2013 09:25 7,4 C 96 % 1017,8 hPa 0,0 l/m 8,4 km/h (2 Bft) S 180 6,8 C 4,1 C 12,9 km/h (3 Bft)
02.06.2013 09:30 7,4 C 96 % 1017,8 hPa 0,0 l/m 8,4 km/h (2 Bft) S-SW 202 6,8 C 4,1 C 7,1 km/h (2 Bft)
02.06.2013 09:35 7,3 C 96 % 1017,8 hPa 0,7 l/m 8,2 km/h (2 Bft) S-SO 157 6,7 C 4,4 C 12,6 km/h (3 Bft)
02.06.2013 09:40 7,3 C 96 % 1018,2 hPa 0,0 l/m 8,9 km/h (2 Bft) SO 135 6,7 C 3,7 C 11,9 km/h (2 Bft)
02.06.2013 09:45 7,2 C 96 % 1018,2 hPa 0,0 l/m 10,9 km/h (2 Bft) S 180 6,6 C 1,8 C 16,3 km/h (3 Bft)
02.06.2013 09:50 7,2 C 96 % 1018,2 hPa 0,0 l/m 11,1 km/h (2 Bft) S-SW 202 6,6 C 1,6 C 12,6 km/h (3 Bft)
02.06.2013 09:55 7,3 C 96 % 1018,2 hPa 0,7 l/m 9,8 km/h (2 Bft) S-SO 157 6,7 C 2,9 C 4,5 km/h (1 Bft)
02.06.2013 10:00 7,2 C 96 % 1018,3 hPa 0,0 l/m 9,3 km/h (2 Bft) S-SO 157 6,6 C 3,3 C 13,5 km/h (3 Bft)
02.06.2013 10:05 7,2 C 96 % 1018,3 hPa 0,0 l/m 8,7 km/h (2 Bft) S-SO 157 6,6 C 3,8 C 14,3 km/h (3 Bft)
02.06.2013 10:10 7,2 C 96 % 1018,3 hPa 0,0 l/m 9,2 km/h (2 Bft) S 180 6,6 C 3,3 C 12,1 km/h (2 Bft)
02.06.2013 10:15 7,1 C 96 % 1018,3 hPa 0,7 l/m 9,8 km/h (2 Bft) S-SW 202 6,5 C 2,5 C 9,0 km/h (2 Bft)
02.06.2013 10:20 7,0 C 96 % 1018,4 hPa 0,0 l/m 8,4 km/h (2 Bft) S 180 6,4 C 3,8 C 11,6 km/h (2 Bft)
02.06.2013 10:25 7,0 C 96 % 1018,4 hPa 0,7 l/m 7,7 km/h (2 Bft) O 90 6,4 C 4,6 C 4,2 km/h (1 Bft)
02.06.2013 10:30 7,1 C 96 % 1018,4 hPa 0,0 l/m 7,2 km/h (2 Bft) S-SO 157 6,5 C 5,2 C 6,8 km/h (2 Bft)
02.06.2013 10:35 7,1 C 96 % 1018,4 hPa 0,0 l/m 6,9 km/h (2 Bft) S-SO 157 6,5 C 5,5 C 9,3 km/h (2 Bft)
02.06.2013 10:40 7,1 C 96 % 1018,2 hPa 0,0 l/m 7,4 km/h (2 Bft) S 180 6,5 C 5,0 C 12,2 km/h (2 Bft)
02.06.2013 10:45 7,1 C 96 % 1018,2 hPa 0,0 l/m 8,7 km/h (2 Bft) SO 135 6,5 C 3,7 C 4,8 km/h (1 Bft)
02.06.2013 10:50 7,2 C 96 % 1018,2 hPa 0,0 l/m 9,2 km/h (2 Bft) S 180 6,6 C 3,3 C 6,9 km/h (2 Bft)
02.06.2013 10:55 7,3 C 96 % 1018,2 hPa 0,0 l/m 7,9 km/h (2 Bft) SO 135 6,7 C 4,6 C 14,5 km/h (3 Bft)
02.06.2013 11:00 7,3 C 96 % 1018,1 hPa 0,7 l/m 9,0 km/h (2 Bft) S 180 6,7 C 3,6 C 17,5 km/h (3 Bft)
02.06.2013 11:05 7,3 C 96 % 1018,1 hPa 0,0 l/m 9,3 km/h (2 Bft) O-SO 112 6,7 C 3,3 C 8,0 km/h (2 Bft)
02.06.2013 11:10 7,2 C 96 % 1018,1 hPa 0,0 l/m 9,3 km/h (2 Bft) S 180 6,6 C 3,1 C 12,9 km/h (3 Bft)
02.06.2013 11:15 7,2 C 96 % 1018,1 hPa 0,7 l/m 9,3 km/h (2 Bft) S-SO 157 6,6 C 3,1 C 10,8 km/h (2 Bft)
02.06.2013 11:20 7,2 C 96 % 1018,6 hPa 0,0 l/m 9,2 km/h (2 Bft) S-SO 157 6,6 C 3,3 C 6,9 km/h (2 Bft)
02.06.2013 11:25 7,3 C 96 % 1018,6 hPa 0,0 l/m 7,4 km/h (2 Bft) S 180 6,7 C 5,0 C 8,0 km/h (2 Bft)
02.06.2013 11:30 7,3 C 96 % 1018,6 hPa 0,0 l/m 7,6 km/h (2 Bft) SO 135 6,7 C 5,0 C 21,2 km/h (4 Bft)
02.06.2013 11:35 7,3 C 96 % 1018,6 hPa 0,0 l/m 9,5 km/h (2 Bft) S-SO 157 6,7 C 3,1 C 14,6 km/h (3 Bft)
02.06.2013 11:40 7,3 C 96 % 1018,7 hPa 0,0 l/m 9,0 km/h (2 Bft) S 180 6,7 C 3,6 C 8,9 km/h (2 Bft)
02.06.2013 11:45 7,2 C 96 % 1018,7 hPa 0,0 l/m 9,5 km/h (2 Bft) S-SW 202 6,6 C 3,0 C 6,9 km/h (2 Bft)
02.06.2013 11:50 7,2 C 96 % 1018,7 hPa 0,7 l/m 8,9 km/h (2 Bft) S-SO 157 6,6 C 3,5 C 12,2 km/h (2 Bft)
02.06.2013 11:55 7,2 C 96 % 1018,7 hPa 0,0 l/m 7,2 km/h (2 Bft) S 180 6,6 C 5,3 C 13,7 km/h (3 Bft)
02.06.2013 12:00 7,2 C 96 % 1019,1 hPa 0,0 l/m 7,7 km/h (2 Bft) S 180 6,6 C 4,7 C 12,1 km/h (2 Bft)
02.06.2013 12:05 7,3 C 96 % 1019,1 hPa 0,0 l/m 7,4 km/h (2 Bft) S-SO 157 6,7 C 5,0 C 14,3 km/h (3 Bft)
02.06.2013 12:10 7,3 C 96 % 1019,1 hPa 0,0 l/m 8,0 km/h (2 Bft) S-SO 157 6,7 C 4,5 C 10,6 km/h (2 Bft)
02.06.2013 12:15 7,3 C 96 % 1019,1 hPa 0,7 l/m 8,4 km/h (2 Bft) S 180 6,7 C 4,1 C 4,5 km/h (1 Bft)
02.06.2013 12:20 7,4 C 96 % 1019,2 hPa 0,0 l/m 8,0 km/h (2 Bft) S 180 6,8 C 4,5 C 9,7 km/h (2 Bft)
02.06.2013 12:25 7,5 C 96 % 1019,2 hPa 0,7 l/m 8,5 km/h (2 Bft) S 180 6,9 C 4,2 C 15,1 km/h (3 Bft)
02.06.2013 12:30 7,5 C 96 % 1019,2 hPa 0,0 l/m 10,1 km/h (2 Bft) S 180 6,9 C 2,8 C 18,8 km/h (3 Bft)
02.06.2013 12:35 7,6 C 96 % 1019,2 hPa 0,7 l/m 11,7 km/h (2 Bft) S-SO 157 7,0 C 1,6 C 10,6 km/h (2 Bft)
02.06.2013 12:40 7,7 C 96 % 1019,4 hPa 0,0 l/m 11,7 km/h (2 Bft) S 180 7,1 C 1,6 C 13,0 km/h (3 Bft)
02.06.2013 12:45 7,7 C 96 % 1019,4 hPa 0,0 l/m 9,8 km/h (2 Bft) S-SW 202 7,1 C 3,3 C 12,2 km/h (2 Bft)
02.06.2013 12:50 7,8 C 96 % 1019,4 hPa 0,7 l/m 9,5 km/h (2 Bft) S 180 7,2 C 3,6 C 7,4 km/h (2 Bft)
02.06.2013 12:55 7,8 C 96 % 1019,4 hPa 0,0 l/m 9,2 km/h (2 Bft) S 180 7,2 C 4,1 C 14,5 km/h (3 Bft)
02.06.2013 13:00 7,7 C 96 % 1019,6 hPa 0,0 l/m 9,5 km/h (2 Bft) S 180 7,1 C 3,6 C 12,6 km/h (3 Bft)
02.06.2013 13:05 7,6 C 96 % 1019,6 hPa 0,0 l/m 9,5 km/h (2 Bft) S 180 7,0 C 3,5 C 13,5 km/h (3 Bft)
02.06.2013 13:10 7,6 C 96 % 1019,6 hPa 0,7 l/m 8,7 km/h (2 Bft) SW 225 7,0 C 4,3 C 7,4 km/h (2 Bft)
02.06.2013 13:15 7,6 C 96 % 1019,6 hPa 0,0 l/m 8,2 km/h (2 Bft) S 180 7,0 C 4,8 C 15,4 km/h (3 Bft)
02.06.2013 13:20 7,6 C 96 % 1020,0 hPa 0,0 l/m 8,5 km/h (2 Bft) SW 225 7,0 C 4,5 C 8,5 km/h (2 Bft)
02.06.2013 13:25 7,6 C 96 % 1020,0 hPa 0,0 l/m 7,9 km/h (2 Bft) SW 225 7,0 C 5,0 C 12,1 km/h (2 Bft)
02.06.2013 13:30 7,5 C 96 % 1020,0 hPa 0,7 l/m 7,2 km/h (2 Bft) W-SW 247 6,9 C 5,8 C 8,0 km/h (2 Bft)
02.06.2013 13:35 7,6 C 96 % 1020,0 hPa 0,0 l/m 6,8 km/h (2 Bft) W-NW 292 7,0 C 6,3 C 5,8 km/h (2 Bft)
02.06.2013 13:40 7,7 C 96 % 1020,2 hPa 0,7 l/m 6,9 km/h (2 Bft) S 180 7,1 C 6,2 C 10,8 km/h (2 Bft)
02.06.2013 13:45 7,7 C 96 % 1020,2 hPa 0,0 l/m 8,2 km/h (2 Bft) S 180 7,1 C 4,8 C 11,9 km/h (2 Bft)
02.06.2013 13:50 7,8 C 96 % 1020,2 hPa 0,7 l/m 8,7 km/h (2 Bft) S 180 7,2 C 4,3 C 11,1 km/h (2 Bft)
02.06.2013 13:55 7,8 C 96 % 1020,2 hPa 0,0 l/m 9,2 km/h (2 Bft) S 180 7,2 C 4,0 C 5,8 km/h (2 Bft)
02.06.2013 14:00 7,8 C 96 % 1020,4 hPa 0,0 l/m 9,2 km/h (2 Bft) W-SW 247 7,2 C 4,1 C 10,3 km/h (2 Bft)
02.06.2013 14:05 7,9 C 96 % 1020,4 hPa 0,7 l/m 8,5 km/h (2 Bft) S-SO 157 7,3 C 4,7 C 8,2 km/h (2 Bft)
02.06.2013 14:10 7,8 C 96 % 1020,4 hPa 0,0 l/m 8,9 km/h (2 Bft) S-SW 202 7,2 C 4,3 C 10,0 km/h (2 Bft)
02.06.2013 14:15 7,8 C 96 % 1020,4 hPa 0,7 l/m 8,4 km/h (2 Bft) S 180 7,2 C 4,8 C 10,8 km/h (2 Bft)
02.06.2013 14:20 7,7 C 96 % 1020,4 hPa 0,0 l/m 7,4 km/h (2 Bft) S 180 7,1 C 5,7 C 2,9 km/h (1 Bft)
02.06.2013 14:25 7,8 C 96 % 1020,4 hPa 0,7 l/m 6,8 km/h (2 Bft) S-SW 202 7,2 C 6,4 C 10,3 km/h (2 Bft)
02.06.2013 14:30 7,8 C 96 % 1020,4 hPa 0,0 l/m 5,5 km/h (1 Bft) S 180 7,2 C 7,1 C 4,2 km/h (1 Bft)
02.06.2013 14:35 7,8 C 96 % 1020,4 hPa 0,7 l/m 5,1 km/h (1 Bft) S 180 7,2 C 7,2 C 5,3 km/h (1 Bft)
02.06.2013 14:40 7,7 C 96 % 1020,8 hPa 0,0 l/m 5,6 km/h (1 Bft) W-SW 247 7,1 C 7,0 C 8,5 km/h (2 Bft)
02.06.2013 14:45 7,7 C 96 % 1020,8 hPa 0,7 l/m 6,6 km/h (2 Bft) S 180 7,1 C 6,6 C 5,3 km/h (1 Bft)
02.06.2013 14:50 7,8 C 96 % 1020,8 hPa 0,7 l/m 6,0 km/h (2 Bft) O-SO 112 7,2 C 6,9 C 1,8 km/h (1 Bft)
02.06.2013 14:55 7,9 C 96 % 1020,8 hPa 0,0 l/m 5,0 km/h (1 Bft) SO 135 7,3 C 7,3 C 7,4 km/h (2 Bft)
02.06.2013 15:00 7,9 C 96 % 1020,8 hPa 0,7 l/m 5,5 km/h (1 Bft) SO 135 7,3 C 7,2 C 4,3 km/h (1 Bft)
02.06.2013 15:05 7,9 C 96 % 1020,8 hPa 0,0 l/m 5,3 km/h (1 Bft) S 180 7,3 C 7,4 C 3,9 km/h (1 Bft)
02.06.2013 15:10 8,0 C 96 % 1020,8 hPa 0,7 l/m 3,5 km/h (1 Bft) S-SW 202 7,4 C 8,0 C 2,6 km/h (1 Bft)
02.06.2013 15:15 8,2 C 96 % 1020,8 hPa 0,0 l/m 3,4 km/h (1 Bft) S-SO 157 7,6 C 8,1 C 5,3 km/h (1 Bft)
02.06.2013 15:20 8,3 C 96 % 1020,8 hPa 0,7 l/m 3,9 km/h (1 Bft) S-SO 157 7,7 C 8,2 C 7,6 km/h (2 Bft)
02.06.2013 15:25 8,2 C 96 % 1020,8 hPa 0,0 l/m 5,3 km/h (1 Bft) SW 225 7,6 C 7,6 C 5,6 km/h (1 Bft)
02.06.2013 15:30 8,1 C 96 % 1020,8 hPa 0,0 l/m 5,3 km/h (1 Bft) S-SO 157 7,5 C 7,5 C 6,1 km/h (2 Bft)
02.06.2013 15:35 8,3 C 96 % 1020,8 hPa 0,7 l/m 4,0 km/h (1 Bft) S 180 7,7 C 8,2 C 4,8 km/h (1 Bft)
02.06.2013 15:40 8,5 C 96 % 1020,8 hPa 0,0 l/m 3,7 km/h (1 Bft) S 180 7,9 C 8,4 C 3,7 km/h (1 Bft)
02.06.2013 15:45 8,5 C 96 % 1020,8 hPa 0,0 l/m 4,0 km/h (1 Bft) S-SO 157 7,9 C 8,4 C 3,5 km/h (1 Bft)
02.06.2013 15:50 8,4 C 96 % 1020,8 hPa 0,7 l/m 5,0 km/h (1 Bft) S-SO 157 7,8 C 8,1 C 8,9 km/h (2 Bft)
02.06.2013 15:55 8,2 C 96 % 1020,8 hPa 0,0 l/m 5,3 km/h (1 Bft) SW 225 7,6 C 7,7 C 5,3 km/h (1 Bft)
02.06.2013 16:00 8,2 C 96 % 1021,1 hPa 0,7 l/m 4,8 km/h (1 Bft) S 180 7,6 C 7,8 C 6,6 km/h (2 Bft)
02.06.2013 16:05 8,2 C 96 % 1021,1 hPa 0,0 l/m 4,0 km/h (1 Bft) S 180 7,6 C 8,1 C 5,8 km/h (2 Bft)
02.06.2013 16:10 8,3 C 96 % 1021,1 hPa 0,0 l/m 4,0 km/h (1 Bft) S-SO 157 7,7 C 8,2 C 7,4 km/h (2 Bft)
02.06.2013 16:15 8,2 C 96 % 1021,1 hPa 0,0 l/m 4,8 km/h (1 Bft) O 90 7,6 C 7,8 C 11,6 km/h (2 Bft)
02.06.2013 16:20 8,2 C 96 % 1021,0 hPa 0,0 l/m 5,3 km/h (1 Bft) W-SW 247 7,6 C 7,7 C 6,9 km/h (2 Bft)
02.06.2013 16:25 8,2 C 96 % 1021,0 hPa 0,7 l/m 5,1 km/h (1 Bft) SO 135 7,6 C 7,7 C 5,3 km/h (1 Bft)
02.06.2013 16:30 8,2 C 96 % 1021,0 hPa 0,0 l/m 5,3 km/h (1 Bft) S-SO 157 7,6 C 7,7 C 3,7 km/h (1 Bft)
02.06.2013 16:35 8,3 C 96 % 1021,0 hPa 0,0 l/m 5,0 km/h (1 Bft) S-SO 157 7,7 C 7,8 C 6,4 km/h (2 Bft)
02.06.2013 16:40 8,4 C 96 % 1021,1 hPa 0,0 l/m 4,7 km/h (1 Bft) S 180 7,8 C 7,9 C 5,8 km/h (2 Bft)
02.06.2013 16:45 8,5 C 96 % 1021,1 hPa 0,7 l/m 4,2 km/h (1 Bft) SO 135 7,9 C 8,3 C 4,8 km/h (1 Bft)
02.06.2013 16:50 8,5 C 96 % 1021,1 hPa 0,0 l/m 3,9 km/h (1 Bft) S-SO 157 7,9 C 8,6 C 4,0 km/h (1 Bft)
02.06.2013 16:55 8,5 C 96 % 1021,1 hPa 0,0 l/m 4,2 km/h (1 Bft) S-SW 202 7,9 C 8,3 C 3,7 km/h (1 Bft)
02.06.2013 17:00 8,4 C 96 % 1021,1 hPa 0,0 l/m 4,2 km/h (1 Bft) SW 225 7,8 C 8,3 C 2,9 km/h (1 Bft)
02.06.2013 17:05 8,3 C 96 % 1021,1 hPa 0,0 l/m 4,3 km/h (1 Bft) S 180 7,7 C 8,3 C 10,3 km/h (2 Bft)
02.06.2013 17:10 8,3 C 96 % 1021,1 hPa 0,7 l/m 4,2 km/h (1 Bft) O-SO 112 7,7 C 8,1 C 3,5 km/h (1 Bft)
02.06.2013 17:15 8,3 C 96 % 1021,1 hPa 0,0 l/m 4,0 km/h (1 Bft) S-SW 202 7,7 C 8,2 C 5,3 km/h (1 Bft)
02.06.2013 17:20 8,3 C 96 % 1021,4 hPa 0,0 l/m 4,0 km/h (1 Bft) S-SW 202 7,7 C 8,2 C 8,7 km/h (2 Bft)
02.06.2013 17:25 8,2 C 96 % 1021,4 hPa 0,7 l/m 4,3 km/h (1 Bft) S-SO 157 7,6 C 8,0 C 10,1 km/h (2 Bft)
02.06.2013 17:30 8,2 C 96 % 1021,4 hPa 0,0 l/m 4,0 km/h (1 Bft) W-SW 247 7,6 C 8,2 C 3,7 km/h (1 Bft)
02.06.2013 17:35 8,3 C 96 % 1021,4 hPa 0,0 l/m 3,4 km/h (1 Bft) SO 135 7,7 C 8,3 C 4,0 km/h (1 Bft)
02.06.2013 17:40 8,3 C 96 % 1021,2 hPa 0,0 l/m 2,9 km/h (1 Bft) SO 135 7,7 C 8,3 C 4,8 km/h (1 Bft)
02.06.2013 17:45 8,4 C 96 % 1021,2 hPa 0,7 l/m 2,9 km/h (1 Bft) S 180 7,8 C 8,4 C 4,5 km/h (1 Bft)
02.06.2013 17:50 8,5 C 96 % 1021,2 hPa 0,0 l/m 2,9 km/h (1 Bft) S 180 7,9 C 8,4 C 3,9 km/h (1 Bft)
02.06.2013 17:55 8,6 C 96 % 1021,2 hPa 0,0 l/m 2,9 km/h (1 Bft) S-SO 157 8,0 C 8,5 C 2,6 km/h (1 Bft)
02.06.2013 18:00 8,6 C 96 % 1021,2 hPa 0,0 l/m 2,9 km/h (1 Bft) N-NW 337 8,0 C 8,6 C 2,3 km/h (1 Bft)
02.06.2013 18:05 8,6 C 96 % 1021,2 hPa 0,0 l/m 2,6 km/h (1 Bft) S 180 8,0 C 8,6 C 4,7 km/h (1 Bft)
02.06.2013 18:10 8,6 C 96 % 1021,2 hPa 0,0 l/m 2,4 km/h (1 Bft) S 180 8,0 C 8,6 C 4,5 km/h (1 Bft)
02.06.2013 18:15 8,5 C 96 % 1021,2 hPa 0,7 l/m 2,3 km/h (1 Bft) O-SO 112 7,9 C 8,6 C 3,7 km/h (1 Bft)
02.06.2013 18:20 8,5 C 96 % 1021,4 hPa 0,0 l/m 1,4 km/h (1 Bft) SO 135 7,9 C 8,6 C 0,0 km/h (0 Bft)
02.06.2013 18:25 8,5 C 96 % 1021,4 hPa 0,0 l/m 0,8 km/h (0 Bft) W-SW 247 7,9 C 8,6 C 0,0 km/h (0 Bft)
02.06.2013 18:30 8,5 C 96 % 1021,4 hPa 0,0 l/m 0,5 km/h (0 Bft) S 180 7,9 C 8,6 C 0,0 km/h (0 Bft)
02.06.2013 18:35 8,5 C 96 % 1021,4 hPa 0,7 l/m 0,2 km/h (0 Bft) W-SW 247 7,9 C 8,6 C 0,0 km/h (0 Bft)
02.06.2013 18:40 8,4 C 96 % 1021,6 hPa 0,0 l/m 0,6 km/h (0 Bft) W-NW 292 7,8 C 8,5 C 3,9 km/h (1 Bft)
02.06.2013 18:45 8,2 C 96 % 1021,6 hPa 0,7 l/m 1,8 km/h (1 Bft) W 270 7,6 C 8,4 C 2,1 km/h (1 Bft)
02.06.2013 18:50 8,2 C 96 % 1021,6 hPa 0,0 l/m 2,4 km/h (1 Bft) W-NW 292 7,6 C 8,3 C 4,2 km/h (1 Bft)
02.06.2013 18:55 8,0 C 96 % 1021,6 hPa 0,7 l/m 4,0 km/h (1 Bft) NW 315 7,4 C 8,1 C 3,7 km/h (1 Bft)
02.06.2013 19:00 7,9 C 96 % 1022,1 hPa 0,7 l/m 4,2 km/h (1 Bft) W-SW 247 7,3 C 7,8 C 3,2 km/h (1 Bft)
02.06.2013 19:05 7,8 C 96 % 1022,1 hPa 0,7 l/m 2,9 km/h (1 Bft) W-SW 247 7,2 C 8,0 C 4,8 km/h (1 Bft)
02.06.2013 19:10 7,7 C 96 % 1022,1 hPa 0,0 l/m 2,9 km/h (1 Bft) S-SW 202 7,1 C 7,9 C 3,4 km/h (1 Bft)
02.06.2013 19:15 7,7 C 96 % 1022,1 hPa 0,7 l/m 2,4 km/h (1 Bft) W-SW 247 7,1 C 7,8 C 2,4 km/h (1 Bft)
02.06.2013 19:20 7,7 C 96 % 1022,2 hPa 0,0 l/m 2,1 km/h (1 Bft) W-SW 247 7,1 C 7,7 C 4,0 km/h (1 Bft)
02.06.2013 19:25 7,6 C 96 % 1022,2 hPa 0,7 l/m 2,3 km/h (1 Bft) W 270 7,0 C 7,7 C 0,0 km/h (0 Bft)
02.06.2013 19:30 7,6 C 96 % 1022,2 hPa 0,0 l/m 2,1 km/h (1 Bft) W 270 7,0 C 7,7 C 3,1 km/h (1 Bft)
02.06.2013 19:35 7,6 C 96 % 1022,2 hPa 0,0 l/m 1,4 km/h (1 Bft) W 270 7,0 C 7,7 C 0,0 km/h (0 Bft)
02.06.2013 19:40 7,6 C 96 % 1022,2 hPa 0,0 l/m 1,0 km/h (0 Bft) W 270 7,0 C 7,6 C 2,1 km/h (1 Bft)
02.06.2013 19:45 7,5 C 96 % 1022,2 hPa 0,7 l/m 0,8 km/h (0 Bft) S 180 6,9 C 7,6 C 3,9 km/h (1 Bft)
02.06.2013 19:50 7,5 C 96 % 1022,2 hPa 0,0 l/m 1,4 km/h (1 Bft) S-SW 202 6,9 C 7,6 C 2,6 km/h (1 Bft)
02.06.2013 19:55 7,4 C 96 % 1022,2 hPa 0,0 l/m 1,6 km/h (1 Bft) O-SO 112 6,8 C 7,5 C 2,1 km/h (1 Bft)
02.06.2013 20:00 7,3 C 96 % 1022,4 hPa 0,0 l/m 2,3 km/h (1 Bft) S 180 6,7 C 7,4 C 7,4 km/h (2 Bft)
02.06.2013 20:05 7,2 C 96 % 1022,4 hPa 0,0 l/m 3,2 km/h (1 Bft) SW 225 6,6 C 7,3 C 2,1 km/h (1 Bft)
02.06.2013 20:10 7,2 C 96 % 1022,4 hPa 0,0 l/m 2,4 km/h (1 Bft) S-SO 157 6,6 C 7,3 C 0,0 km/h (0 Bft)
02.06.2013 20:15 7,2 C 96 % 1022,4 hPa 0,7 l/m 1,3 km/h (1 Bft) S 180 6,6 C 7,2 C 2,9 km/h (1 Bft)
02.06.2013 20:20 7,1 C 96 % 1022,7 hPa 0,0 l/m 2,4 km/h (1 Bft) S 180 6,5 C 7,2 C 6,3 km/h (2 Bft)
02.06.2013 20:25 7,0 C 96 % 1022,7 hPa 0,0 l/m 3,9 km/h (1 Bft) S 180 6,4 C 6,9 C 4,8 km/h (1 Bft)
02.06.2013 20:30 6,9 C 96 % 1022,7 hPa 0,0 l/m 3,9 km/h (1 Bft) SO 135 6,3 C 6,9 C 8,5 km/h (2 Bft)
02.06.2013 20:35 6,8 C 96 % 1022,7 hPa 0,0 l/m 3,9 km/h (1 Bft) S-SO 157 6,2 C 6,7 C 5,0 km/h (1 Bft)
02.06.2013 20:40 6,8 C 96 % 1022,6 hPa 0,0 l/m 4,2 km/h (1 Bft) S-SW 202 6,2 C 6,5 C 3,7 km/h (1 Bft)
02.06.2013 20:45 6,7 C 96 % 1022,6 hPa 0,0 l/m 3,4 km/h (1 Bft) S 180 6,1 C 6,8 C 5,8 km/h (2 Bft)
02.06.2013 20:50 6,7 C 96 % 1022,6 hPa 0,7 l/m 2,9 km/h (1 Bft) SO 135 6,1 C 6,8 C 5,0 km/h (1 Bft)
02.06.2013 20:55 6,6 C 96 % 1022,6 hPa 0,0 l/m 4,0 km/h (1 Bft) S-SW 202 6,0 C 6,4 C 5,6 km/h (1 Bft)
02.06.2013 21:00 6,6 C 96 % 1022,6 hPa 0,0 l/m 3,9 km/h (1 Bft) W-SW 247 6,0 C 6,4 C 3,2 km/h (1 Bft)
02.06.2013 21:05 6,5 C 96 % 1022,6 hPa 0,0 l/m 2,3 km/h (1 Bft) O-NO 67 5,9 C 6,5 C 2,1 km/h (1 Bft)
02.06.2013 21:10 6,4 C 96 % 1022,6 hPa 0,0 l/m 1,9 km/h (1 Bft) S-SO 157 5,8 C 6,5 C 3,5 km/h (1 Bft)
02.06.2013 21:15 6,4 C 96 % 1022,6 hPa 0,7 l/m 2,3 km/h (1 Bft) O 90 5,8 C 6,5 C 2,7 km/h (1 Bft)
02.06.2013 21:20 6,3 C 96 % 1022,8 hPa 0,0 l/m 2,1 km/h (1 Bft) O 90 5,7 C 6,4 C 3,1 km/h (1 Bft)
02.06.2013 21:25 6,3 C 96 % 1022,8 hPa 0,0 l/m 2,4 km/h (1 Bft) O 90 5,7 C 6,3 C 3,9 km/h (1 Bft)
02.06.2013 21:30 6,3 C 96 % 1022,8 hPa 0,0 l/m 2,6 km/h (1 Bft) O 90 5,7 C 6,3 C 2,1 km/h (1 Bft)
02.06.2013 21:35 6,3 C 96 % 1022,8 hPa 0,7 l/m 2,6 km/h (1 Bft) SO 135 5,7 C 6,3 C 4,0 km/h (1 Bft)
02.06.2013 21:40 6,3 C 96 % 1022,8 hPa 0,0 l/m 1,8 km/h (1 Bft) O 90 5,7 C 6,3 C 3,1 km/h (1 Bft)
02.06.2013 21:45 6,3 C 96 % 1022,8 hPa 0,0 l/m 1,9 km/h (1 Bft) S-SW 202 5,7 C 6,3 C 4,2 km/h (1 Bft)
02.06.2013 21:50 6,3 C 96 % 1022,8 hPa 0,0 l/m 2,7 km/h (1 Bft) O-SO 112 5,7 C 6,3 C 5,6 km/h (1 Bft)
02.06.2013 21:55 6,3 C 96 % 1022,8 hPa 0,0 l/m 3,1 km/h (1 Bft) NO 45 5,7 C 6,3 C 5,5 km/h (1 Bft)
02.06.2013 22:00 6,3 C 96 % 1022,7 hPa 0,7 l/m 3,1 km/h (1 Bft) O-SO 112 5,7 C 6,3 C 3,5 km/h (1 Bft)
02.06.2013 22:05 6,3 C 96 % 1022,7 hPa 0,0 l/m 2,4 km/h (1 Bft) O 90 5,7 C 6,3 C 1,6 km/h (1 Bft)
02.06.2013 22:10 6,3 C 96 % 1022,7 hPa 0,0 l/m 2,3 km/h (1 Bft) NO 45 5,7 C 6,3 C 1,9 km/h (1 Bft)
02.06.2013 22:15 6,3 C 96 % 1022,7 hPa 0,0 l/m 2,4 km/h (1 Bft) SO 135 5,7 C 6,3 C 0,0 km/h (0 Bft)
02.06.2013 22:20 6,3 C 96 % 1022,9 hPa 0,0 l/m 2,4 km/h (1 Bft) S 180 5,7 C 6,3 C 2,7 km/h (1 Bft)
02.06.2013 22:25 6,2 C 96 % 1022,9 hPa 0,0 l/m 2,3 km/h (1 Bft) SO 135 5,6 C 6,3 C 5,1 km/h (1 Bft)
02.06.2013 22:30 6,2 C 96 % 1022,9 hPa 0,0 l/m 1,9 km/h (1 Bft) O-SO 112 5,6 C 6,3 C 1,6 km/h (1 Bft)
02.06.2013 22:35 6,2 C 96 % 1022,9 hPa 0,7 l/m 1,6 km/h (1 Bft) O 90 5,6 C 6,2 C 1,9 km/h (1 Bft)
02.06.2013 22:40 6,2 C 96 % 1022,8 hPa 0,0 l/m 1,9 km/h (1 Bft) SO 135 5,6 C 6,2 C 4,2 km/h (1 Bft)
02.06.2013 22:45 6,2 C 96 % 1022,8 hPa 0,0 l/m 2,7 km/h (1 Bft) O 90 5,6 C 6,2 C 3,5 km/h (1 Bft)
02.06.2013 22:50 6,2 C 96 % 1022,8 hPa 0,0 l/m 3,2 km/h (1 Bft) O-SO 112 5,6 C 6,2 C 5,0 km/h (1 Bft)
02.06.2013 22:55 6,2 C 96 % 1022,8 hPa 0,0 l/m 2,7 km/h (1 Bft) SW 225 5,6 C 6,2 C 0,0 km/h (0 Bft)
02.06.2013 23:00 6,2 C 96 % 1022,9 hPa 0,0 l/m 2,4 km/h (1 Bft) S-SO 157 5,6 C 6,2 C 5,1 km/h (1 Bft)
02.06.2013 23:05 6,2 C 96 % 1022,9 hPa 0,0 l/m 2,1 km/h (1 Bft) SO 135 5,6 C 6,2 C 6,3 km/h (2 Bft)
02.06.2013 23:10 6,3 C 96 % 1022,9 hPa 0,0 l/m 1,9 km/h (1 Bft) S-SO 157 5,7 C 6,2 C 2,4 km/h (1 Bft)
02.06.2013 23:15 6,2 C 96 % 1022,9 hPa 0,0 l/m 0,8 km/h (0 Bft) O-NO 67 5,6 C 6,2 C 0,0 km/h (0 Bft)
02.06.2013 23:20 6,2 C 96 % 1022,7 hPa 0,0 l/m 0,2 km/h (0 Bft) O 90 5,6 C 6,2 C 0,0 km/h (0 Bft)
02.06.2013 23:25 6,2 C 96 % 1022,7 hPa 0,7 l/m 0,0 km/h (0 Bft) O-NO 67 5,6 C 6,2 C 0,0 km/h (0 Bft)
02.06.2013 23:30 6,2 C 96 % 1022,7 hPa 0,0 l/m 0,3 km/h (0 Bft) S 180 5,6 C 6,2 C 0,0 km/h (0 Bft)
02.06.2013 23:35 6,2 C 96 % 1022,7 hPa 0,0 l/m 0,6 km/h (0 Bft) SO 135 5,6 C 6,2 C 0,0 km/h (0 Bft)
02.06.2013 23:40 6,2 C 96 % 1022,8 hPa 0,0 l/m 1,3 km/h (1 Bft) S-SW 202 5,6 C 6,2 C 2,9 km/h (1 Bft)
02.06.2013 23:45 6,2 C 96 % 1022,8 hPa 0,0 l/m 1,3 km/h (1 Bft) O-SO 112 5,6 C 6,2 C 0,0 km/h (0 Bft)
02.06.2013 23:50 6,2 C 96 % 1022,8 hPa 0,0 l/m 1,4 km/h (1 Bft) NO 45 5,6 C 6,2 C 0,0 km/h (0 Bft)
02.06.2013 23:55 6,2 C 96 % 1022,8 hPa 0,0 l/m 1,0 km/h (0 Bft) O-NO 67 5,6 C 6,2 C 2,3 km/h (1 Bft)
_ Min-Zeit 23:55 23:55 04:55 - 23:25 - - 23:55 09:50 23:50
Minimum _ 6,2 C 96 % 1015,5 hPa - 0,0 km/h (0 Bft) - - 5,6 C 1,6 C 0,0 km/h (0 Bft)
_ Max-Zeit 00:10 23:55 23:15 23:25 12:40 - - 00:10 18:35 04:20
Maximum _ 8,8 C 96 % 1022,9 hPa 0,7 l/m 11,7 km/h
S (2 Bft)
- - 8,2 C 8,6 C 23,3 km/h
S-SO (4 Bft)
Durchschnitt _ 7,6 C 96 % 1019,1 hPa #50,8 l/m 6,0 km/h (2 Bft) S - 7,1 C 6,1 C 7,5 km/h (2 Bft)